Regional Weather Roundup
Issued by NWS

Home | Current Version | Previous Version | Text Only | Print | Product List | Glossary Off
Versions: 1 2 3 4 5 6 7 8 9 10 11 12 13 14 15 16 17 18 19 20 21 22 23 24 25 26 27 28 29 30 31 32 33 34 35 36 37 38 39 40 41 42 43 44 45 46 47 48 49 50

834
ASUS43 KMKX 280811
RWRWI

WISCONSIN REGIONAL WEATHER ROUNDUP
NATIONAL WEATHER SERVICE MILWAUKEE/SULLIVAN WI
200 AM CST TUE FEB 28 2017

NOTE: "FAIR" INDICATES FEW OR NO CLOUDS BELOW 12,000 FEET WITH NO
SIGNIFICANT WEATHER AND/OR OBSTRUCTIONS TO VISIBILITY.

WIZ001-002-006>008-014>016-023>028-280900-
NORTHWEST WISCONSIN

CITY           SKY/WX    TMP DP  RH WIND       PRES   REMARKS
SUPERIOR ARPT  CLOUDY    30  29  99 NE3       29.84F
ASHLAND        PTCLDY    25  23  92 NE3       29.85F
HAYWARD        CLOUDY    36  26  67 S7        29.81F WCI  30
SIREN          MOCLDY    36  26  68 SE5       29.78F WCI  32
CUMBERLAND     CLOUDY    34  27  75 SE3       29.81F
RICE LAKE      CLOUDY    36  28  75 SE8       29.83F WCI  29
CHETEK         CLOUDY    33  28  81 SE3       29.82F
LADYSMITH      CLOUDY    32  28  85 SE5       29.85F WCI  28
EAU CLAIRE     CLOUDY    37  30  75 SE6       29.82F WCI  32
MENOMONIE      CLOUDY    35  30  83 E6        29.82F WCI  30
NEW RICHMOND   CLOUDY    37  29  73 SE5       29.79F WCI  33
OSCEOLA        CLOUDY    38  30  71 E3        29.81F
$$

WIZ003>005-009-010-017-018-280900-
NORTH CENTRAL WISCONSIN

CITY           SKY/WX    TMP DP  RH WIND       PRES   REMARKS
MANITOWISH WTR CLOUDY    31  27  86 SE6       29.85F WCI  25
ARBOR VITAE    CLOUDY    33  29  84 SE6         N/A  WCI  27
WOODRUFF       CLOUDY    33  29  84 SE6         N/A  WCI  27
RHINELANDER    CLOUDY    35  29  78 S5        29.89F WCI  31
EAGLE RIVER    CLOUDY    32  26  78 SE3       29.88F
LAND O LAKES   CLOUDY    34  28  80 S7        29.89F WCI  28
PHILLIPS       CLEAR     31  28  88 SE6       29.84F WCI  26
TOMAHAWK       CLOUDY    32  28  85 CALM      29.88F
MEDFORD        CLOUDY    33  28  83 SE3       29.86F
MERRILL        NOT AVBL
$$

WIZ029-030-035-036-043>047-280900-
CENTRAL WISCONSIN

CITY           SKY/WX    TMP DP  RH WIND       PRES   REMARKS
WAUSAU         CLOUDY    32  28  85 E7        29.87F WCI  26
MOSINEE        CLOUDY    34  32  93 SE7       29.89F WCI  28
MARSHFIELD     PTCLDY    34  28  79 SE6       29.85F WCI  29
STEVENS POINT  MOCLDY    34  30  83 SE6       29.90F WCI  29
WAUPACA        CLOUDY    37  32  84 CALM      29.93F
WAUTOMA        LGT RAIN  36  33  89 SE5       29.92F WCI  32
WISC RAPIDS    PTCLDY    39  32  76 SE8       29.89F WCI  33
CAMP DOUGLAS   LGT RAIN  36  32  87 SE7       29.86F WCI  30
$$

WIZ011>013-019>022-031-037>040-048>050-280900-
NORTHEAST WISCONSIN

CITY           SKY/WX    TMP DP  RH WIND       PRES   REMARKS
ANTIGO         CLOUDY    32  29  90 SE12      29.90F WCI  23
SHAWANO        CLOUDY    36  32  85 CALM      29.94F
OCONTO         CLOUDY    36  32  87 SE7       29.97F WCI  30
STURGEON BAY   CLOUDY    36  35  96 SE8       29.99F WCI  30
GREEN BAY      CLOUDY    39  35  86 S7        29.95F WCI  34
MANITOWOC      CLOUDY    38  36  92 SE8       29.98F WCI  32
APPLETON       CLOUDY    36  30  80 SE7       29.92F WCI  30
CLINTONVILLE   CLOUDY    34  32  93 SE3       29.93F
OSHKOSH        LGT RAIN  37  33  85 S6        29.94F WCI  32
$$

WIZ032>034-041-042-053>061-280900-
SOUTHWEST WISCONSIN

CITY           SKY/WX    TMP DP  RH WIND       PRES   REMARKS
LA CROSSE      CLOUDY    41  35  79 S6        29.84F
SPARTA         CLOUDY    42  37  80 SE6       29.87F
VIROQUA        CLOUDY    37  37  99 CALM      29.85F
BOSCOBEL       LGT RAIN  40  38  93 NE3       29.86F FOG
PRAIRIE DU CHI LGT RAIN  41  38  91 S6        29.83F
PLATTEVILLE    CLOUDY    41  40  97 E10       29.84F
$$

WIZ056-057-062-063-064-067-068-280900-
SOUTH CENTRAL WISCONSIN

CITY           SKY/WX    TMP DP  RH WIND       PRES   REMARKS
REEDSBURG      LGT RAIN  37  37 100 E5        29.87F WCI  33
BARABOO/DELLS  LGT RAIN  38  36  94 E7        29.87F WCI  32
LONE ROCK      LGT RAIN  42  37  82 E10       29.87F
MINERAL POINT  LGT RAIN  43  41  93 SE8       29.85F
MADISON        CLOUDY    42  38  85 SE8       29.89F
MIDDLETON      CLOUDY    42  37  83 E6        29.88F
WATERTOWN      LGT RAIN  42  39  92 SE3       29.93S
MONROE         CLOUDY    41  41 100 E10       29.87F
JANESVILLE     LGT RAIN  45  43  93 SE5       29.90S
$$

WIZ051-052-058>065-066-070>072-280900-
SOUTHEAST WISCONSIN

CITY           SKY/WX    TMP DP  RH WIND       PRES   REMARKS
MILWAUKEE      CLOUDY    41  36  82 SE9       29.95F
WAUKESHA       CLOUDY    41  36  81 SE6       29.95F
MILWAUKEE/TIMM DRIZZLE   41  34  75 E5        29.95F
RACINE         CLOUDY    42  37  82 SE10      29.97F
KENOSHA        LGT RAIN  42  38  85 SE10      29.94F FOG
FOND DU LAC    LGT RAIN  39  33  79 SE5       29.94F
SHEBOYGAN      CLOUDY    39  34  82 S7        29.97F WCI  34
WEST BEND      CLOUDY    37  36  93 E5        29.96F WCI  34
JUNEAU         CLOUDY    40  35  84 SE9       29.92F WCI  34
$$

LSZ147-162-280900-
LAKE SUPERIOR

STATION/POSITION TIME  TEMP    WIND        PRES    WAVE
                       AIR SEA DIR/SP/G            HT/PER
                 (UTC) (F)     (DEG/KT/KT) (MB)    (FT/S)
DEVILS ISLAND    0700   33      50/  6/  7 1013.1F
PORT WING        0730   27     120/  3/  5 1011.2F
SAXON HARBOR     0720   29     200/  1/  8 1011.2F
$$

LMZ867-665-643>646-280900-
LAKE MICHIGAN

STATION/POSITION TIME  TEMP    WIND        PRES    WAVE
                       AIR SEA DIR/SP/G            HT/PER
                 (UTC) (F)     (DEG/KT/KT) (MB)    (FT/S)
CHAMBERS ISLAND  0740   38     140/  6/ 10 1015.2F
NORTHPORT PIER   0740   37     150/  7/  9 1015.9F
SISTER BAY       0735   36     160/  9/ 12   N/A
ALGOMA LAKESHORE 0741             CALM       N/A
KEWAUNEE LAKESHO 0748   36     160/  5/  7 1015.2F
SHEBOYGAN LAKESH 0800   39     170/ 11/ 11 1015.3F
PORT WASHINGTON  0740   40     150/  5/  6 1015.9F
MILWAUKEE LAKESH 0750   38     150/  3/  4   N/A
KENOSHA   LAKESH 0800   39     160/ 13/ 17 1014.2
$$

TC  - TEMPERATURE IN CELSIUS
VSB - VISIBILITY IN STATUTE MILES
WCI - WIND CHILL INDEX
HX  - HEAT INDEX





USA.gov is the U.S. government's official web portal to all federal, state and local government web resources and services.